Regional Weather Roundup
Issued by NWS

Home | Current Version | Previous Version | Graphics & Text | Print | Product List | Glossary On
Versions: 1 2 3 4 5 6 7 8 9 10 11 12 13 14 15 16 17 18 19 20 21 22 23 24 25 26 27 28 29 30 31 32 33 34 35 36 37 38 39 40 41 42 43 44 45 46 47 48 49 50
000
ASUS43 KLMK 242310
RWRKY
KENTUCKY REGIONAL WEATHER ROUNDUP
NATIONAL WEATHER SERVICE LOUISVILLE KY
700 PM EDT WED AUG 24 2016

NOTE "FAIR" INDICATES FEW OR NO CLOUDS BELOW 12,000 FEET
WITH NO SIGNIFICANT WEATHER AND/OR OBSTRUCTIONS TO VISIBILITY.

KYZ001>023-026-027-061>063-070>075-250000-
WESTERN AND SOUTH CENTRAL KENTUCKY

CITY           SKY/WX    TMP DP  RH WIND       PRES   REMARKS
PADUCAH        SUNNY     89  72  56 SW10      30.05F HX  96
HENDERSON      SUNNY     90  73  58 SW10G17   30.03F HX  98
OWENSBORO      MOSUNNY   89  76  65 SW13      30.06F HX 100
HOPKINSVILLE   CLOUDY    89  74  61 SW14      30.09F HX  97
BOWLING GREEN  MOSUNNY   89  71  55 SW15      30.10S HX  95
GLASGOW        MOSUNNY   87  73  62 S5        30.12F HX  94
$$

KYZ024-025-028>034-038-045-046-053-250000-
NORTH CENTRAL KENTUCKY

CITY           SKY/WX    TMP DP  RH WIND       PRES   REMARKS
LOUISVILLE/SDF PTSUNNY   88  71  57 S10       30.08R HX  94
LOUISVILLE/LOU MOSUNNY   88  71  57 SW10      30.09R HX  94
FORT KNOX      MOSUNNY   85  74  70 S7        30.08F HX  93
$$

KYZ035>037-039>044-047>052-055>060-089>105-250000-
NORTHEAST KENTUCKY

CITY           SKY/WX    TMP DP  RH WIND       PRES   REMARKS
LEXINGTON      SUNNY     86  71  60 SW10      30.13F HX  91
COVINGTON      CLOUDY    83  73  72 S7        30.08F
FRANKFORT      SUNNY     87  71  58 SW12      30.11S HX  93
$$

KYZ054-064>069-076>088-106>120-250000-
SOUTHEAST KENTUCKY

CITY           SKY/WX    TMP DP  RH WIND       PRES   REMARKS
JACKSON        MOSUNNY   84  71  65 CALM      30.18S
LONDON         SUNNY     86  68  54 SW6       30.16F
SOMERSET       SUNNY     86  68  54 W7        30.16S
MIDDLESBORO    SUNNY     86  71  61 S5        30.17S HX  91
MONTICELLO     CLEAR    N/A N/A N/A W14       30.17S
$$





USA.gov is the U.S. government's official web portal to all federal, state and local government web resources and services.